TimeEET,TemperatureF,Dew PointF,Humidity,Sea Level PressureIn,VisibilityMPH,Wind Direction,Wind SpeedMPH,Gust SpeedMPH,PrecipitationIn,Events,Conditions,WindDirDegrees,DateUTC
12:00 AM,50.0,46.4,87,29.95,6.2,NNW,12.7,-,N/A,,Mostly Cloudy,330,2013-01-08 22:00:00
12:30 AM,48.2,46.4,93,29.95,5.0,NW,6.9,-,N/A,Rain,Light Rain,310,2013-01-08 22:30:00
1:00 AM,48.2,46.4,93,29.95,6.2,North,5.8,-,N/A,,Mostly Cloudy,350,2013-01-08 23:00:00
1:30 AM,48.2,46.4,93,29.95,6.2,Calm,Calm,-,N/A,,Mostly Cloudy,0,2013-01-08 23:30:00
2:00 AM,49,46,87,29.98,5,NNW,2.3,,,Rain,Light Rain,340,2013-01-09 00:00:00
2:00 AM,48.2,46.4,93,29.95,5.0,NNW,2.3,-,N/A,Rain,Rain,340,2013-01-09 00:00:00
2:30 AM,48.2,46.4,93,29.95,6.2,NNW,2.3,-,N/A,,Mostly Cloudy,340,2013-01-09 00:30:00
3:00 AM,48.2,46.4,93,29.95,6.2,SW,4.6,-,N/A,,Mostly Cloudy,230,2013-01-09 01:00:00
3:30 AM,48.2,46.4,93,29.98,3.7,West,9.2,-,N/A,Rain,Light Rain,270,2013-01-09 01:30:00
4:00 AM,46.4,44.6,93,29.98,3.7,WNW,10.4,-,N/A,Rain,Light Rain,300,2013-01-09 02:00:00
4:30 AM,48.2,44.6,87,29.98,6.2,West,5.8,-,N/A,,Mostly Cloudy,270,2013-01-09 02:30:00
5:00 AM,48.2,46.4,93,29.98,6.2,West,5.8,-,N/A,,Mostly Cloudy,280,2013-01-09 03:00:00
5:30 AM,46.4,44.6,93,29.98,6.2,WNW,12.7,-,N/A,,Mostly Cloudy,300,2013-01-09 03:30:00
6:00 AM,48.2,44.6,87,29.98,6.2,West,6.9,-,N/A,,Mostly Cloudy,260,2013-01-09 04:00:00
6:30 AM,48.2,42.8,82,30.01,6.2,West,9.2,-,N/A,,Mostly Cloudy,270,2013-01-09 04:30:00
7:00 AM,48.2,42.8,82,30.01,6.2,WSW,8.1,-,N/A,,Mostly Cloudy,250,2013-01-09 05:00:00
7:30 AM,48.2,42.8,82,30.04,6.2,WSW,11.5,-,N/A,,Mostly Cloudy,250,2013-01-09 05:30:00
8:00 AM,49,42,71,30.05,6,WSW,12.7,,,,Partly Cloudy,240,2013-01-09 06:00:00
8:00 AM,48.2,42.8,82,30.04,6.2,WSW,12.7,-,N/A,,Mostly Cloudy,240,2013-01-09 06:00:00
8:30 AM,50.0,42.8,76,30.04,6.2,WSW,12.7,-,N/A,,Mostly Cloudy,240,2013-01-09 06:30:00
9:00 AM,50.0,42.8,76,30.06,6.2,WSW,12.7,-,N/A,,Mostly Cloudy,240,2013-01-09 07:00:00
9:30 AM,51.8,41.0,67,30.06,6.2,West,12.7,-,N/A,,Scattered Clouds,260,2013-01-09 07:30:00
10:00 AM,51.8,41.0,67,30.06,6.2,West,15.0,-,N/A,,Scattered Clouds,260,2013-01-09 08:00:00
10:30 AM,51.8,41.0,67,30.06,6.2,West,13.8,-,N/A,,Scattered Clouds,270,2013-01-09 08:30:00
11:00 AM,46.4,41.0,81,30.06,6.2,WNW,11.5,-,N/A,,Scattered Clouds,300,2013-01-09 09:00:00
11:30 AM,50.0,42.8,76,30.06,6.2,WNW,13.8,-,N/A,,Scattered Clouds,290,2013-01-09 09:30:00
12:00 PM,50.0,41.0,71,30.06,6.2,WNW,13.8,-,N/A,,Scattered Clouds,300,2013-01-09 10:00:00
12:30 PM,51.8,39.2,62,30.06,6.2,West,11.5,-,N/A,,Scattered Clouds,280,2013-01-09 10:30:00
1:00 PM,51.8,37.4,58,30.04,6.2,West,13.8,-,N/A,,Scattered Clouds,270,2013-01-09 11:00:00
1:30 PM,51.8,37.4,58,30.04,6.2,West,12.7,-,N/A,,Scattered Clouds,270,2013-01-09 11:30:00
2:00 PM,53,37,42,30.07,6,West,13.8,,,,Partly Cloudy,260,2013-01-09 12:00:00
2:00 PM,51.8,37.4,58,30.04,6.2,West,13.8,-,N/A,,Mostly Cloudy,260,2013-01-09 12:00:00
2:30 PM,50.0,41.0,71,30.06,6.2,West,15.0,-,N/A,,Mostly Cloudy,270,2013-01-09 12:30:00
3:00 PM,50.0,41.0,71,30.06,6.2,WSW,10.4,-,N/A,,Mostly Cloudy,240,2013-01-09 13:00:00
3:30 PM,50.0,41.0,71,30.06,6.2,West,13.8,-,N/A,,Mostly Cloudy,270,2013-01-09 13:30:00
4:00 PM,50.0,41.0,71,30.09,6.2,West,12.7,-,N/A,,Mostly Cloudy,270,2013-01-09 14:00:00
4:30 PM,50.0,41.0,71,30.09,6.2,WSW,8.1,-,N/A,,Mostly Cloudy,250,2013-01-09 14:30:00
5:30 PM,50.0,39.2,66,30.09,6.2,WSW,11.5,-,N/A,,Mostly Cloudy,240,2013-01-09 15:30:00
6:00 PM,48.2,39.2,71,30.12,6.2,WSW,11.5,-,N/A,,Mostly Cloudy,250,2013-01-09 16:00:00
6:30 PM,48.2,39.2,71,30.12,6.2,West,11.5,-,N/A,,Mostly Cloudy,260,2013-01-09 16:30:00
7:00 PM,48.2,39.2,71,30.12,6.2,West,8.1,-,N/A,,Mostly Cloudy,270,2013-01-09 17:00:00
7:30 PM,48.2,41.0,76,30.12,6.2,WSW,9.2,-,N/A,,Mostly Cloudy,250,2013-01-09 17:30:00
8:00 PM,48,40,67,30.17,6,West,10.4,,,,Partly Cloudy,280,2013-01-09 18:00:00
8:00 PM,48.2,41.0,76,30.15,6.2,West,10.4,-,N/A,,Mostly Cloudy,280,2013-01-09 18:00:00
8:30 PM,48.2,41.0,76,30.15,6.2,West,8.1,-,N/A,,Mostly Cloudy,280,2013-01-09 18:30:00
9:00 PM,48.2,41.0,76,30.15,6.2,WNW,11.5,-,N/A,,Mostly Cloudy,300,2013-01-09 19:00:00
9:30 PM,48.2,41.0,76,30.15,6.2,West,6.9,-,N/A,,Mostly Cloudy,280,2013-01-09 19:30:00
10:00 PM,48.2,41.0,76,30.15,6.2,WSW,8.1,-,N/A,,Mostly Cloudy,240,2013-01-09 20:00:00
10:30 PM,48.2,41.0,76,30.15,6.2,SSW,6.9,-,N/A,,Mostly Cloudy,210,2013-01-09 20:30:00
11:00 PM,48.2,41.0,76,30.15,6.2,SW,6.9,-,N/A,,Mostly Cloudy,230,2013-01-09 21:00:00
11:30 PM,48.2,41.0,76,30.15,6.2,WSW,11.5,-,N/A,,Mostly Cloudy,240,2013-01-09 21:30:00